DJ2RF Weather Reports


time (UTC)temp
C
wind
direction
speed
KPH
gust
KPH
rain 1hr
cm
rain 24hr
cm
rain mn
cm
humidity
%
barometer
mb
20260504081535 18 360 0.0 0.0 0.00 0.00 0.00 50 1016.9
20260504080634 18 360 0.0 0.0 0.00 0.00 0.00 52 1016.9
20260504070305 15 360 0.0 0.0 0.00 0.00 0.00 59 1017.0
20260504060118 13 360 0.0 0.0 0.00 0.00 0.00 64 1016.9
20260504050610 13 360 0.0 0.0 0.00 0.00 0.00 64 1016.8
20260504045630 13 360 0.0 0.0 0.00 0.00 0.00 63 1016.8
20260504044706 12 360 0.0 0.0 0.00 0.00 0.00 63 1016.9
20260504043756 12 360 0.0 0.0 0.00 0.00 0.00 64 1016.9
20260504042930 13 360 0.0 0.0 0.00 0.00 0.00 63 1016.8
20260504042101 13 360 0.0 0.0 0.00 0.00 0.00 62 1016.8
20260504041221 13 360 0.0 0.0 0.00 0.00 0.00 62 1016.8
20260504040236 13 360 0.0 0.0 0.00 0.00 0.00 63 1016.9
20260504035326 13 360 0.0 0.0 0.00 0.00 0.00 63 1016.8
20260504034456 13 360 0.0 0.0 0.00 0.00 0.00 62 1016.9
20260504033636 13 360 0.0 0.0 0.00 0.00 0.00 61 1016.9
20260504032710 13 360 0.0 0.0 0.00 0.00 0.00 62 1016.9
20260504031801 13 360 0.0 0.0 0.00 0.00 0.00 62 1017.0
20260504030950 12 360 0.0 0.0 0.00 0.00 0.00 63 1017.1
20260504030006 12 360 0.0 0.0 0.00 0.00 0.00 63 1017.2
20260504025201 12 360 0.0 0.0 0.00 0.00 0.00 62 1017.2
20260504024246 13 360 0.0 0.0 0.00 0.00 0.00 61 1017.1
20260504023436 13 360 0.0 0.0 0.00 0.00 0.00 60 1017.1
20260504022626 13 360 0.0 0.0 0.00 0.00 0.00 60 1017.1
20260504021641 13 360 0.0 0.0 0.00 0.00 0.00 60 1017.0
20260504020646 13 360 0.0 0.0 0.00 0.00 0.00 60 1016.9
20260504015836 13 360 0.0 0.0 0.00 0.00 0.00 59 1017.0
20260504014941 13 360 0.0 0.0 0.00 0.00 0.00 60 1016.8
20260504014011 13 360 0.0 0.0 0.00 0.00 0.00 61 1016.8
20260504013058 14 360 0.0 0.0 0.00 0.00 0.00 60 1016.8
20260504012236 14 360 0.0 0.0 0.00 0.00 0.00 57 1016.8
20260504011241 15 360 0.0 0.0 0.00 0.00 0.00 56 1017.0
20260504010421 15 360 0.0 0.0 0.00 0.00 0.00 55 1017.0
20260504005526 15 360 0.0 0.0 0.00 0.00 0.00 55 1017.0
20260504004548 15 360 0.0 0.0 0.00 0.00 0.00 55 1017.2
20260504003726 15 360 0.0 0.0 0.00 0.00 0.00 54 1017.3
20260504002921 15 360 0.0 0.0 0.00 0.00 0.00 54 1017.1
20260504002106 15 360 0.0 0.0 0.00 0.00 0.00 52 1016.8
20260504001206 15 360 0.0 0.0 0.00 0.00 0.00 52 1016.6
20260504000356 15 360 0.0 0.0 0.00 0.00 0.00 54 1016.7
20260503235456 16 360 0.0 0.0 0.00 0.00 0.00 52 1016.8
20260503234641 16 360 0.0 0.0 0.00 0.00 0.00 51 1016.8
20260503233721 16 360 0.0 0.0 0.00 0.00 0.00 51 1016.5
20260503232746 16 360 0.0 0.0 0.00 0.00 0.00 51 1016.4
20260503231941 16 360 0.0 0.0 0.00 0.00 0.00 51 1016.5
20260503231121 16 360 0.0 0.0 0.00 0.00 0.00 50 1016.3
20260503230128 16 360 0.0 0.0 0.00 0.00 0.00 51 1016.3
20260503225316 16 360 0.0 0.0 0.00 0.00 0.00 51 1016.2
20260503224321 16 360 0.0 0.0 0.00 0.00 0.00 51 1016.2
20260503223406 16 360 0.0 0.0 0.00 0.00 0.00 51 1016.0
20260503222546 17 360 0.0 0.0 0.00 0.00 0.00 51 1016.1
20260503221653 17 360 0.0 0.0 0.00 0.00 0.00 50 1016.0
20260503220816 17 360 0.0 0.0 0.00 0.00 0.00 53 1015.9
20260503215856 17 360 0.0 0.0 0.00 0.00 0.00 55 1015.7
20260503214926 18 360 0.0 0.0 0.00 0.00 0.00 55 1015.6
20260503214026 18 360 0.0 0.0 0.00 0.00 0.00 55 1015.5
20260503213226 18 360 0.0 0.0 0.00 0.00 0.00 54 1015.5
20260503212336 18 360 0.0 0.0 0.00 0.00 0.00 55 1015.1
20260503211426 17 360 0.0 0.0 0.00 0.00 0.00 60 1015.1
20260503210541 18 360 0.0 0.0 0.00 0.00 0.00 58 1015.1
20260503205701 18 360 0.0 0.0 0.00 0.00 0.00 58 1014.8
20260503204706 18 360 0.0 0.0 0.00 0.00 0.00 57 1014.9
20260503203801 18 360 0.0 0.0 0.00 0.00 0.00 58 1014.8
20260503202841 18 360 0.0 0.0 0.00 0.00 0.00 57 1014.9
20260503202026 18 360 0.0 0.0 0.00 0.00 0.00 57 1014.8
20260503201115 17 360 0.0 0.0 0.00 0.00 0.00 58 1014.9
20260503200306 17 360 0.0 0.0 0.00 0.00 0.00 61 1014.7
20260503195356 17 360 0.0 0.0 0.00 0.00 0.00 62 1014.8
20260503194501 17 360 0.0 0.0 0.00 0.00 0.00 61 1014.6
20260503193545 17 360 0.0 0.0 0.00 0.00 0.00 61 1014.6
20260503192656 18 360 0.0 0.0 0.00 0.00 0.00 61 1014.4
20260503191736 18 360 0.0 0.0 0.00 0.00 0.00 58 1014.2
20260503190828 18 360 0.0 0.0 0.00 0.00 0.00 55 1014.2
20260503190008 19 360 0.0 0.0 0.00 0.00 0.00 53 1014.1
20260503185045 19 360 0.0 0.0 0.00 0.00 0.00 47 1014.0
20260503184244 19 360 0.0 0.0 0.00 0.00 0.00 48 1014.0
20260503183346 19 360 0.0 0.0 0.00 0.00 0.00 51 1013.8
20260503182441 20 360 0.0 0.0 0.00 0.00 0.00 49 1013.7
20260503181521 20 360 0.0 0.0 0.00 0.00 0.00 49 1013.7
20260503180541 21 360 0.0 0.0 0.00 0.00 0.00 47 1013.7
20260503175708 21 360 0.0 0.0 0.00 0.00 0.00 45 1013.8
20260503174856 21 360 0.0 0.0 0.00 0.00 0.00 45 1013.6
20260503174014 22 360 0.0 0.0 0.00 0.00 0.00 44 1013.7
20260503173021 22 360 0.0 0.0 0.00 0.00 0.00 42 1013.7
20260503172136 22 360 0.0 0.0 0.00 0.00 0.00 40 1013.7
20260503171151 22 360 0.0 0.0 0.00 0.00 0.00 39 1013.6
20260503170321 22 360 0.0 0.0 0.00 0.00 0.00 39 1013.6
20260503150326 25 360 0.0 0.0 0.00 0.00 0.00 38 1013.6